Regional Weather Roundup
Issued by NWS

Home | Current Version | Previous Version | Graphics & Text | Print | Product List | Glossary On
Versions: 1 2 3 4 5 6 7 8 9 10 11 12 13 14 15 16 17 18 19 20 21 22 23 24 25 26 27 28 29 30 31 32 33 34 35 36 37 38 39 40 41 42 43 44 45 46 47 48 49 50
128
ASUS45 KPSR 110410
RWRAZ

ARIZONA HOURLY REGIONAL WEATHER ROUNDUP
NATIONAL WEATHER SERVICE PHOENIX AZ
900 PM MST WED FEB 10 2016

NOTE: FAIR INDICATES FEW OR NO CLOUDS BELOW 12,000 FEET WITH NO
SIGNIFICANT WEATHER AND/OR OBSTRUCTIONS TO VISIBILITY.

AZZ001>003-036-110500-
NORTHWEST ARIZONA

CITY           SKY/WX    TMP DP  RH WIND       PRES   REMARKS
BULLHEAD CITY  CLEAR     66  28  24 NE7       30.17S
KINGMAN        CLEAR     46  32  58 SE6       30.26F
$$

AZZ004>008-015-016-018-110500-
NORTH CENTRAL ARIZONA

CITY           SKY/WX    TMP DP  RH WIND       PRES   REMARKS
GRAND CANYON   PTCLDY    29  18  63 E3        30.39S
WILLIAMS       CLEAR     34  19  55 S9        30.44S WCI  26
PRESCOTT       PTCLDY    47  23  38 S12       30.31R
FLAGSTAFF      CLEAR     31  21  66 CALM      30.39F
PAYSON         PTCLDY    50  27  40 CALM      30.32R
PAGE           CLEAR     42  28  57 SE6       30.34R
$$

AZZ009>014-017-110500-
NORTHEAST ARIZONA

CITY           SKY/WX    TMP DP  RH WIND       PRES   REMARKS
WINSLOW        PTCLDY    38  19  46 CALM      30.33R
SAINT JOHNS    PTCLDY    38  20  48 S7        30.33S WCI  33
WINDOW ROCK    PTCLDY    32   0  25 CALM      30.38R
SHOW LOW       CLEAR     32  18  55 CALM      30.37F
$$

AZZ023-110500-
GREATER PHOENIX AREA

CITY           SKY/WX    TMP DP  RH WIND       PRES   REMARKS
PHOENIX        MOCLDY    75  28  17 NW3       30.10S
BUCKEYE        MOCLDY    61  32  33 N9        30.13S
DEER VALLEY    MOCLDY    67  29  24 NE10      30.12S
SCOTTSDALE     MOCLDY    68  28  22 NE3       30.14S
MESA-GATEWAY   PTCLDY    64  34  32 VRB3      30.13S
CHANDLER       MOCLDY    68  30  24 CALM      30.12S
$$

AZZ027-028-110500-
SOUTHWEST MARICOPA COUNTY AND PINAL COUNTY

CITY           SKY/WX    TMP DP  RH WIND       PRES   REMARKS
CASA GRANDE    MOCLDY    64  27  24 N6        30.13S
GILA BEND      FAIR      61  31  31 SE6       30.09F
$$

AZZ503-504-507>509-110500-
SOUTHEAST ARIZONA

CITY           SKY/WX    TMP DP  RH WIND       PRES   REMARKS
TUCSON         PTCLDY    63  20  19 SE5       30.19R
DAVIS-MONTHAN  CLEAR     58  26  29 NW6       30.17R
NOGALES        CLEAR     53  18  25 NE5       30.22S
SIERRA VISTA   CLEAR     51  19  28 S5        30.27F
DOUGLAS        CLEAR     48  11  22 N8        30.25R
SAFFORD        CLEAR     51  22  31 SE5       30.20R
$$

AZZ020-021-025-026-031-110500-
SOUTHWEST ARIZONA

CITY           SKY/WX    TMP DP  RH WIND       PRES   REMARKS
YUMA           PTCLDY    72  25  17 N7        30.08F
$$

CAZ031-033-041-043-047-048-061-110500-
SOUTHERN CALIFORNIA

CITY           SKY/WX    TMP DP  RH WIND       PRES   REMARKS
DOWNTOWN L.A.  CLEAR     66  39  37 CALM      30.08S
L.A. AIRPORT   CLEAR     66  42  41 W3        30.09S
SAN DIEGO      PTCLDY    71  28  20 N3        30.10S
BURBANK        CLEAR     70  32  24 W6        30.10S
ONTARIO        CLEAR     72  35  25 SW6       30.12R
RIVERSIDE      CLEAR     71  34  25 CALM      30.12R
PALM SPRINGS   CLEAR     68  31  25 N9        30.14S
EL CENTRO NAS  PTCLDY    64  30  27 N5        30.10S
IMPERIAL       PTCLDY    66  34  30 CALM      30.08S
BLYTHE         PTCLDY    62  25  24 N7        30.12S
NEEDLES        CLEAR     65  25  22 NW6       30.16S
$$

NVZ020-UTZ003-110500-
SOUTHERN NEVADA-UTAH

CITY           SKY/WX    TMP DP  RH WIND       PRES   REMARKS
LAS VEGAS      CLEAR     60  27  28 SW5       30.19S
SALT LAKE CITY CLOUDY    29  28  96 CALM      30.46S FOG
$$

NMZ009-TXZ055-110500-
NEW MEXICO-WEST TEXAS

CITY           SKY/WX    TMP DP  RH WIND       PRES   REMARKS
ALBUQUERQUE    CLOUDY    52  21  29 N7        30.31R
EL PASO        CLEAR     58  17  20 S3        30.23F
$$


........................KEY........................
SKY/WX - SKY CONDITION/WEATHER
TMP    - TEMPERATURE IN FAHRENHEIT
DP     - DEW POINT IN FAHRENHEIT
RH     - RELATIVE HUMIDITY IN PERCENT
WIND   - DIRECTION AND SPEED IN MILES PER HOUR (MPH)
VRB    - VARIABLE WIND DIRECTION
PRES   - MEAN SEA LEVEL PRESSURE IN INCHES OF MERCURY
         F - FALLING PRESSURE   R - RISING PRESSURE
         S - STEADY PRESSURE
VSB    - VISIBILITY IN MILES
HX     - HEAT INDEX IN FAHRENHEIT
WCI    - WIND CHILL INDEX IN FAHRENHEIT
TC     - TEMPERATURE IN CELSIUS WHICH IS ALSO KNOWN AS
         TEMPERATURE IN CENTIGRADE
AFB    - AIR FORCE BASE
         LUKE AFB IS LUKE AIR FORCE BASE
         DAVIS-MONTHAN IS DAVIS-MONTHAN AIR FORCE BASE
NAS    - NAVAL AIR STATION
         EL CENTRO NAS IS EL CENTRO NAVAL AIR STATION
N/A    - NOT AVAILABLE





USA.gov is the U.S. government's official web portal to all federal, state and local government web resources and services.